Hurghada, Egypt

12:19 PM EET on July 26, 2017 (GMT +0200)
Hurghada

Weather History for HEGN - October, 2013

Change the Weather History Date:

Tuesday, October 15, 2013

  Actual Average Record
Temperature  
Mean Temperature 81 °F -  
Max Temperature 91 °F 81 °F 98 °F (2010)
Min Temperature 71 °F 66 °F 69 °F (2003)
Cooling Degree Days 16    
Growing Degree Days 31 (Base 50)    
Moisture  
Dew Point 58 °F    
Average Humidity 45    
Maximum Humidity 61    
Minimum Humidity 28    
Precipitation  
Precipitation 0.00 in - - ()
Sea Level Pressure  
Sea Level Pressure 29.93 in    
Wind  
Wind Speed 11 mph ()    
Max Wind Speed 16 mph    
Max Gust Speed -    
Visibility 6.0 miles    
Events      
Averages and records for this station are not official NWS values.
T = Trace of Precipitation, MM = Missing Value Source: Averaged Metar Reports

Daily Weather History Graph

Daily Weather History Graph

Search for Another Location

Airport or City:

Trip Planner

Search our weather history database for the weather conditions in past years. The results will help you decide how hot, cold, wet, or windy it might be!

Date:

Astronomy

Oct. 15, 2013 Rise Set
Actual Time 5:44 AM EET 5:16 PM EET
Civil Twilight 5:21 AM EET 5:39 PM EET
Nautical Twilight 4:54 AM EET 6:07 PM EET
Astronomical Twilight 4:27 AM EET 6:34 PM EET
Moon 2:53 PM EET (10/15) 2:04 AM EET (10/15)
Length of Visible Light 12h 18m
Length of Day
11h 31m
Waxing Gibbous, 85% of the Moon is Illuminated
Oct 15
Waxing Gibbous
Oct 19
Full
Oct 27
Last Quarter
Nov 3
New
Nov 10
First Quarter

Hourly Weather History & Observations

Time (EET) Temp. Heat Index Dew Point Humidity Pressure Visibility Wind Dir Wind Speed Gust Speed Precip Events Conditions
12:00 AM 77.0 °F - 51.8 °F 41% 29.92 in - NW 15.0 mph - N/A   Clear
1:00 AM 75.2 °F - 51.8 °F 44% 29.89 in - WNW 11.5 mph - N/A   Clear
2:00 AM 75 °F - 53 °F 36% 29.92 in 6 mi NNE 10.4 mph - -  
2:00 AM 75.2 °F - 53.6 °F 47% 29.92 in - WNW 10.4 mph - N/A   Clear
3:00 AM 75.2 °F - 53.6 °F 47% 29.92 in - NW 11.5 mph - N/A   Clear
4:00 AM 73.4 °F - 55.4 °F 53% 29.92 in - NW 11.5 mph - N/A   Clear
5:00 AM 73.4 °F - 55.4 °F 53% 29.92 in - NW 13.8 mph - N/A   Clear
6:00 AM 71.6 °F - 55.4 °F 57% 29.95 in - NW 9.2 mph - N/A   Clear
7:00 AM 73.4 °F - 57.2 °F 57% 29.95 in - NW 11.5 mph - N/A   Clear
8:00 AM 77 °F - 59 °F 43% 29.97 in 6 mi NW 11.5 mph - -  
8:00 AM 77.0 °F - 59.0 °F 54% 29.95 in - NW 11.5 mph - N/A   Clear
9:00 AM 80.6 °F 81.5 °F 60.8 °F 51% 29.95 in - NNW 16.1 mph - N/A   Clear
10:00 AM 84.2 °F 85.0 °F 62.6 °F 48% 29.98 in - North 16.1 mph - N/A   Clear
11:00 AM 86.0 °F 86.6 °F 62.6 °F 45% 29.95 in - North 16.1 mph - N/A   Clear
12:00 PM 89.6 °F 89.5 °F 60.8 °F 38% 29.92 in - North 12.7 mph - N/A   Clear
1:00 PM 91.4 °F 91.4 °F 60.8 °F 36% 29.92 in - NNE 9.2 mph - N/A   Clear
2:00 PM 91 °F - 62 °F 28% 29.91 in 6 mi NNE 8.1 mph - -  
2:00 PM 91.4 °F 92.1 °F 62.6 °F 38% 29.89 in - NNE 8.1 mph - N/A   Clear
3:00 PM 91.4 °F 93.2 °F 64.4 °F 41% 29.89 in - North 9.2 mph - N/A   Clear
4:00 PM 87.8 °F 87.1 °F 59.0 °F 38% 29.89 in - North 13.8 mph - N/A   Clear
5:00 PM 84.2 °F 84.4 °F 60.8 °F 45% 29.89 in - North 10.4 mph - N/A   Clear
6:00 PM 80.6 °F 82.7 °F 66.2 °F 61% 29.92 in - NNW 11.5 mph - N/A   Clear
7:00 PM 78.8 °F - 64.4 °F 61% 29.92 in - NW 6.9 mph - N/A   Clear
8:00 PM 78 °F - 59 °F 41% 29.94 in 6 mi NW 12.7 mph - -  
8:00 PM 78.8 °F - 59.0 °F 51% 29.92 in - NW 12.7 mph - N/A   Clear
9:00 PM 78.8 °F - 50.0 °F 36% 29.95 in - NW 11.5 mph - N/A   Clear
10:00 PM 75.2 °F - 44.6 °F 34% 29.92 in - WNW 13.8 mph - N/A   Clear
11:00 PM 75.2 °F - 46.4 °F 36% 29.92 in - West 11.5 mph - N/A   Clear